This is the latest recevied weather packets stored in our database for station/object N0FDH. If no packets are shown the sender has not sent any weather packets the latest 10 day(s).
| Time | Temp. | Humidity | Pressure | Rain* | Wind** | Luminosity | Snow |
|---|---|---|---|---|---|---|---|
| 1777536702 | -0.56° C | 83% | 1017.2 hPa | 0 mm | - | 0 W/m² | - |
| 1777536398 | -0.56° C | 82% | 1017.2 hPa | 0 mm | - | 0 W/m² | - |
| 1777536095 | -0.56° C | 82% | 1017.1 hPa | 0 mm | - | 0 W/m² | - |
| 1777535790 | -0.56° C | 82% | 1017.1 hPa | 0 mm | - | 0 W/m² | - |
| 1777535488 | -0.56° C | 83% | 1017.2 hPa | 0 mm | - | 0 W/m² | - |
| 1777535185 | -1.11° C | 83% | 1017.2 hPa | 0 mm | - | 0 W/m² | - |
| 1777534880 | -1.11° C | 84% | 1017.3 hPa | 0 mm | - | 0 W/m² | - |
| 1777534578 | -1.11° C | 87% | 1017.2 hPa | 0 mm | - | 0 W/m² | - |
| 1777534275 | -1.11° C | 88% | 1017.1 hPa | 0 mm | - | 0 W/m² | - |
| 1777533973 | -1.11° C | 89% | 1017.4 hPa | 0 mm | - | 0 W/m² | - |
| 1777533670 | -1.11° C | 89% | 1017.4 hPa | 0 mm | - | 0 W/m² | - |
| 1777533366 | -0.56° C | 88% | 1017.3 hPa | 0 mm | - | 0 W/m² | - |
| 1777533062 | -0.56° C | 87% | 1017.2 hPa | 0 mm | - | 0 W/m² | - |
| 1777532760 | -1.11° C | 88% | 1017.2 hPa | 0 mm | - | 0 W/m² | - |
| 1777532456 | -1.11° C | 90% | 1017.2 hPa | 0 mm | - | 0 W/m² | - |
| 1777532153 | -1.11° C | 90% | 1017.3 hPa | 0 mm | - | 0 W/m² | - |
| 1777531849 | -0.56° C | 90% | 1017.3 hPa | 0 mm | - | 0 W/m² | - |
| 1777531544 | -0.56° C | 88% | 1017.4 hPa | 0 mm | - | 0 W/m² | - |
| 1777531242 | -0.56° C | 86% | 1017.3 hPa | 0 mm | - | 0 W/m² | - |
| 1777530941 | -0.56° C | 85% | 1017.3 hPa | 0 mm | - | 0 W/m² | - |
| 1777530637 | -0.56° C | 85% | 1017.3 hPa | 0 mm | - | 0 W/m² | - |
| 1777530335 | -0.56° C | 85% | 1017.2 hPa | 0 mm | - | 0 W/m² | - |
| 1777530030 | -0.56° C | 85% | 1017.2 hPa | 0 mm | - | 0 W/m² | - |
| 1777529728 | -0.56° C | 85% | 1017.3 hPa | 0 mm | - | 0 W/m² | - |
| 1777529424 | -0.56° C | 85% | 1017.4 hPa | 0 mm | - | 0 W/m² | - |
* Rain latest hour (hover to see other rain measurements)
** Current wind speed in m/s (hover to see current wind gust speed)